Location: Arbon
(43.0005°N, 0.7472°E)
Time: 11:39:49
(UTC+00:00)

SPOT 5 - Pass Details

Date: 22 April 2026
Orbit: 618 x 802 km, 98.0° (Epoch: 15 May)

Event Time Altitude Azimuth Distance (km) Brightness Sun altitude
Rises 19:20:24 0° 158° (SSE) 3,020 5.7 -6.4°
Reaches altitude 10° 19:22:41 10° 156° (SSE) 2,083 4.8 -6.8°
Maximum altitude 19:27:09 66° 74° (ENE) 706 2.7 -7.6°
Drops below altitude 10° 19:31:30 10° 353° (N) 2,018 5.7 -8.3°
Sets 19:33:40 0° 351° (N) 2,917 6.6 -8.6°
